Regional Weather Roundup
Issued by NWS Columbia, SC

Home | Current Version | Previous Version | Text Only | Print | Product List | Glossary On
Versions: 1 2 3 4 5 6 7 8 9 10 11 12 13 14 15 16 17 18 19 20 21 22 23 24 25 26 27 28 29 30 31 32 33 34 35 36 37 38 39 40 41 42 43 44 45 46 47 48 49 50
000
ASUS42 KCAE 312310
RWRCAE
REGIONAL WEATHER ROUNDUP
NATIONAL WEATHER SERVICE COLUMBIA SC
700 PM EDT THU JUL 31 2014

NOTE: "FAIR" INDICATES FEW OR NO CLOUDS BELOW 12,000 FEET WITH NO
SIGNIFICANT WEATHER AND/OR OBSTRUCTIONS TO VISIBILITY.

NOT ALL STATIONS ARE QUALITY CONTROLLED BY THE NATIONAL
WEATHER SERVICE. USE DATA WITH CAUTION...ESPECIALLY
DEWPOINT OBSERVATIONS.

SCZ001>056-GAZ040-063>065-077-010000-
...UPSTATE SOUTH CAROLINA...

CITY           SKY/WX    TMP DP  RH WIND       PRES   REMARKS
ANDERSON       CLOUDY    69  64  84 E3        30.10S
LIBERTY        FAIR      70  70 100 NE5       30.11R
SPARTANBURG    DRIZZLE   70  68  94 NE7       30.11R
CLEMSON        CLOUDY    74  61  63 NE6       30.12S
GREENVILLE     CLOUDY    69  62  78 NE14      30.11F
GREENWOOD      CLOUDY    70  66  87 N7        30.11F
GREER          CLOUDY    68  64  87 N7        30.10S
ROCK HILL      CLOUDY    75  69  81 NE8       30.11S
CHESTER        CLOUDY    73  72  94 SE8G26    30.12R
LAURENS        RAIN      70 N/A N/A CALM      30.13R


...CENTRAL SOUTH CAROLINA...

CITY           SKY/WX    TMP DP  RH WIND       PRES   REMARKS
COLUMBIA APT   CLOUDY    74  69  85 NE9       30.06S
COLUMBIA OWENS CLOUDY    72  68  87 VRB5      30.08R
DARLINGTON     CLOUDY    73  68  83 NE5       30.11F
FLORENCE       CLOUDY    77  71  82 NE7       30.08S
MCENTIRE ANGB  CLOUDY    72  69  91 NE9       30.07S
ORANGEBURG     PTSUNNY   77  70  79 E9        30.04F
SUMTER SHAW    CLOUDY    72  70  94 NE8       30.06R
NEWBERRY       LGT RAIN  72  72 100 CALM      30.13R
AIKEN          CLOUDY    72  72 100 NE9       30.09R
BARNWELL       FAIR      81  70  69 E7        30.03S
MANNING        CLOUDY    73 N/A N/A N6        30.06S
CAMDEN         LGT RAIN  70  68  94 E8        30.10F
LANCASTER      LGT RAIN  70  70 100 SE14      30.12R
WINNSBORO      RAIN      70  70 100 E6        30.11R


...EASTERN AND COASTAL SOUTH CAROLINA...

CITY           SKY/WX    TMP DP  RH WIND       PRES   REMARKS
MYRTLE BEACH   PTSUNNY   82  72  69 E17       30.06R
N MYRTLE BCH   CLOUDY    82  70  66 E15       30.06S
CONWAY         MOCLDY    77  73  88 NE6       30.07R
MARION         FAIR      77  70  78 NE5       30.08S
HARTSVILLE     CLOUDY    72  70  94 CALM      30.12S
FLORENCE       CLOUDY    77  71  82 NE7       30.08S
DARLINGTON     CLOUDY    73  68  83 NE5       30.11F
CHARLESTON APT CLOUDY    78  74  87 E8        30.03R
MOUNT PLEASANT MOCLDY    75  73  94 CALM      30.03R FOG
WALTERBORO     MOCLDY    79  79 100 E9        30.02F
BEAUFORT       PTSUNNY   83  74  74 E8        30.00S


...EASTERN GEORGIA...

CITY           SKY/WX    TMP DP  RH WIND       PRES   REMARKS
AUGUSTA BUSH F PTSUNNY   77  72  84 N7        30.02S
AUGUSTA DANIEL CLOUDY    75  71  87 N8        30.05S
THOMSON        CLOUDY    74  74 100 N6        30.10R
WASHINGTON     LGT RAIN  70 N/A N/A N3        30.08S
CLAXTON        CLOUDY    82  77  83 NE8       29.99R
SYLVANIA       MOCLDY    80  76  88 E7        30.01S
STATESBORO     PTSUNNY   80  73  80 E6        30.00S
SAVANNAH       PTSUNNY   81  76  84 N5        29.99S


...SOUTHERN NORTH CAROLINA...

CITY           SKY/WX    TMP DP  RH WIND       PRES   REMARKS
CHARLOTTE      CLOUDY    74  68  81 N14G21    30.11F
MONROE         CLOUDY    78  69  73 NE7       30.10S
WADESBORO      DRIZZLE   80  69  70 CALM      30.10R
ROCKINGHAM     DRIZZLE   77  66  69 S10       30.11R
RUTHERFORDTON  CLOUDY    68  65  89 N5        30.15R
ASHEVILLE      CLOUDY    68  60  75 CALM      30.18S

$$



USA.gov is the U.S. government's official web portal to all federal, state and local government web resources and services.